www.pogodaiklimat.ru

Погода и климат >> Архив погоды >> Мексика >> Puerto Angel


ПОГОДА в Puerto Angel

  • Прогноз погоды в Puerto Angel
  • Монитор погоды в Puerto Angel
  • Климат города

АРХИВ ПОГОДЫ в Puerto Angel

Время (UTC), дата Ветер
(напр.,м/с)
 
Видим.   Явления Облачность Т
(С)
Тd
(С)
f
(%)
Тe
(С)
Тes
(С)
Комфортность P
(гПа)
Po
(гПа)
Тmin
(С)
Tmax
(С)
R
(мм)
R24
(мм)
S
(см)
18 9.08 З 5 30 км 6/1 600 м
[Cu med, cong Ac und Cs]
+30.4 +25.3 74 +44 +52 опасность
перегрева
1011.4 1006.5 +24.4 +31.0
21 9.08 З 6 30 км 9/4 600 м
[Cu med, cong Ac und Cs]
+28.8 +24.8 79 +41 +43 опасность
перегрева
1010.3 1005.4
00 10.08 С 3 30 км 9/3 600 м
[Cu med, cong Ac und Cs]
+26.8 +24.6 88 +38 +38 очень
душно
1008.9 1004.0 +24.4 +31.0
03 10.08 С 3 20 км {морось} 10/4 600 м
[Cu med, cong As op Cs]
+25.8 +24.4 92 +36 +36 очень
душно
1010.4 1005.5 0.1
06 10.08 С 3 20 км 9/1 600 м
[Cu med, cong Ac und Cs]
+25.6 +24.2 92 +35 +35 очень
душно
1011.1 1006.2 +24.4 +31.0
09 10.08 С 1 20 км 10/4 600 м
[Cu med, cong Cs]
+25.8 +24.2 91 +36 +36 очень
душно
1010.9 1005.9
12 10.08 С 1 30 км {морось} 8/3 600 м
[Cu med, cong Ac und Cs]
+25.2 +24.1 94 +35 +35 очень
душно
1010.6 1005.6 0.4
15 10.08 В 1 30 км 10/3 600 м
[Cu med, cong Ac und]
+26.6 +24.4 88 +37 +40 очень
душно
1011.5 1006.6
18 10.08 ЮВ 1 30 км 10/3 600 м
[Cu med, cong Ac und]
+30.0 +24.6 73 +43 +48 опасность
перегрева
1012.1 1007.1 +24.6 +30.8
21 10.08 В 1 30 км 10/1 600 м
[Cu med, cong Ac und Cs]
+29.0 +25.0 79 +42 +49 опасность
перегрева
1010.8 1005.9
00 11.08 ЮВ 1 30 км 10/1 600 м
[Cu med, cong Ac und Cs]
+28.0 +24.8 83 +40 +40 очень
душно
1010.1 1005.2 +24.6 +30.8
03 11.08 СВ 1 30 км 5/1 600 м
[Cu med, cong Ac und]
+27.6 +24.6 84 +39 +39 очень
душно
1011.6 1006.8
06 11.08 СВ 1 30 км 6/1 600 м
[Cu med, cong Cs]
+27.0 +24.3 85 +38 +38 очень
душно
1012.7 1007.8 +24.6 +30.8
12 11.08 В 1 30 км 10/3 600 м
[Cu med, cong Ac und]
+26.0 +23.2 85 +35 +35 очень
душно
1010.9 1006.0 +23.6 +30.8
15 11.08 В 1 30 км 10/3 600 м
[Cu med, cong Ac und]
+27.4 +24.1 82 +38 +40 очень
душно
1012.3 1007.4
18 11.08 ЮВ 2 30 км 10/3 600 м
[Cu med, cong Ac und]
+28.0 +24.5 81 +39 +44 очень
душно
1013.1 1008.1 +23.8 +29.4
21 11.08 СВ 1 30 км {дождь} 10/3 600 м
[Cu med, cong Ac und Cs]
+25.6 +23.4 88 +35 +40 очень
душно
1011.5 1006.6 4
00 12.08 В 1 30 км 8/1 600 м
[Cu med, cong Cs]
+28.0 +22.4 72 +37 +37 очень
душно
1010.1 1005.2 +23.8 +29.0
03 12.08 СВ 1 30 км 6/1 600 м
[Cu med, cong Cs]
+27.0 +22.3 75 +35 +35 очень
душно
1011.1 1006.2
06 12.08 С 1 30 км 9/1 600 м
[Cu med, cong Ac und Cs]
+26.4 +21.6 75 +34 +34 очень
душно
1012.0 1007.1 +23.8 +29.0
09 12.08 С 1 30 км 9/1 600 м
[Cu med, cong Ac und Cs]
+25.6 +21.9 80 +33 +33 очень
душно
1010.7 1005.8
12 12.08 СВ 1 30 км 6/3 600 м
[Cb cap Ac und]
+25.0 +22.2 84 +32 +32 очень
душно
1010.5 1005.6 +24.0 +29.0
15 12.08 СВ 2 30 км 4/1 600 м
[Cu med, cong Cs]
+28.0 +23.9 78 +39 +46 очень
душно
1012.3 1007.3
18 12.08 ЮЗ 2 30 км 5/1 600 м
[Cu med, cong Ac As Cs]
+31.4 +25.8 72 +46 +62 опасность
перегрева
1012.8 1007.9 +24.0 +32.4
21 12.08 Ю 2 30 км 9/3 600 м
[Cu med, cong Ac As Cs]
+32.0 +25.6 69 +47 +52 опасность
перегрева
1011.6 1006.7
00 13.08 С 2 30 км 10/3 600 м
[Cu med, cong Ac As]
+28.4 +24.3 78 +40 +40 очень
душно
1011.1 1006.2 +24.0 +34.0
03 13.08 С 2 30 км 4/1 600 м
[Cu med, cong Cs]
+27.2 +24.2 84 +38 +38 очень
душно
1011.8 1006.9
06 13.08 С 2 30 км ясно +25.0 +23.1 89 +33 +33 очень
душно
1012.9 1008.0 +24.0 +34.0
09 13.08 С 2 30 км ясно +24.8 +22.3 86 +32 +32 очень
душно
1012.0 1007.1
12 13.08 С 2 30 км ясно +24.0 +21.2 84 +30 +30 очень
душно
1011.1 1006.2 +23.0 +34.0
15 13.08 СЗ 1 30 км 1/0
[Ac trans]
+29.2 +24.3 75 +41 +51 опасность
перегрева
1011.6 1006.6
18 13.08 ЮЗ 3 30 км 1/0
[Ac trans]
+32.4 +24.3 62 +45 +62 опасность
перегрева
1011.3 1006.4 +23.0 +33.0
21 13.08 ЮЗ 3 30 км 1/1 600 м
[Cu med, cong]
+32.8 +24.2 61 +45 +56 опасность
перегрева
1009.6 1004.8
00 14.08 З 3 30 км 1/1 600 м
[Cu med, cong]
+31.8 +23.9 63 +43 +44 опасность
перегрева
1008.7 1003.9 +23.0 +33.6
03 14.08 С 2 20 км 1/1 600 м
[Cu med, cong]
+28.4 +24.3 78 +40 +40 очень
душно
1010.4 1005.5
06 14.08 С 2 20 км ясно +26.8 +24.1 85 +37 +37 очень
душно
1010.7 1005.8 +23.0 +33.6
09 14.08 С 3 20 км ясно +26.2 +24.0 88 +36 +36 очень
душно
1010.3 1005.4
12 14.08 СВ 1 30 км 4/1 750 м
[Cb cap Ac und]
+25.0 +23.3 90 +33 +33 очень
душно
1010.4 1005.5 +24.2 +33.6
15 14.08 СЗ 2 30 км ясно +29.6 +23.9 71 +41 +50 опасность
перегрева
1010.9 1005.9
18 14.08 СЗ 2 30 км 6/1 600 м
[Cu med, cong Ac As Cs]
+32.6 +25.7 67 +48 +62 опасность
перегрева
1010.6 1005.7 +24.2 +33.6
21 14.08 ЮВ 1 30 км 8/1 600 м
[Cu med, cong Cs]
+32.0 +25.0 67 +46 +58 опасность
перегрева
1009.5 1004.6
00 15.08 ЮВ 3 30 км 8/3 600 м
[Cu med, cong Cs]
+30.8 +25.5 73 +45 +45 опасность
перегрева
1008.6 1003.8 +24.2 +33.4
03 15.08 С 1 30 км 8/4 600 м
[Cb cap Ac und]
+29.0 +24.4 76 +41 +41 опасность
перегрева
1009.8 1005.0
06 15.08 СВ 1 30 км 6/1 600 м
[Cu med, cong Cs]
+27.6 +23.2 77 +37 +37 очень
душно
1011.2 1006.4 +24.2 +33.4
12 15.08 СВ 2 30 км 8/1 600 м
[Cu med, cong Ac und Cs]
+26.0 +23.2 85 +35 +35 очень
душно
1010.5 1005.6 +25.0 +33.4
15 15.08 ЮВ 5 25 км слабый дождь {гроза} 10/8 600 м
[Cb cap As op]
+24.4 +23.6 95 +33 +33 очень
душно
1012.4 1007.5 5
18 15.08 В 6 30 км 10/8 600 м
[Cb cap As op]
+26.2 +23.4 85 +36 +36 очень
душно
1012.7 1007.8 +24.2 +28.6
21 15.08 ЮВ 2 30 км 9/1 600 м
[Cu med, cong Ac As Cs]
+30.6 +23.2 65 +41 +48 опасность
перегрева
1010.5 1005.6
00 16.08 В 2 30 км 8/1 600 м
[Cu med, cong Cs]
+30.6 +23.6 66 +41 +42 опасность
перегрева
1010.4 1005.5 +24.2 +32.2
03 16.08 СВ 1 30 км 6/1 600 м
[Cu med, cong Cs]
+27.6 +23.5 78 +37 +37 очень
душно
1010.5 1005.6
06 16.08 СВ 1 30 км 8/1 600 м
[Cu med, cong Cs]
+26.8 +22.9 79 +36 +36 очень
душно
1012.0 1007.1 +24.2 +32.2
12 16.08 СВ 3 30 км 1/0
[Ac und]
+26.2 +22.9 82 +35 +35 очень
душно
1011.2 1006.3 +25.0 +33.2
15 16.08 ЮЗ 1 30 км 1/1 600 м
[Cu med, cong]
+29.6 +23.9 71 +41 +50 опасность
перегрева
1012.0 1007.1

 

Местоположение метеостанции Puerto Angel (Мексика): широта 15.68 долгота -96.48 высота над уровнем моря 46 м.

В архиве по умолчанию представлена погода в Puerto Angel за последнюю неделю. Архивные данные за месяц целиком и за предыдущие месяцы, начиная с января 2011 года, Вы можете получить, выбрав интересующий диапазон дат из раскрывающегося списка и нажав кнопку "Ввод!".

Внимание! Время в таблицах - всемирное. Для получения местного времени необходимо прибавить поправку, которая в Puerto Angel равна -6 ч.

Смотрите также архив погоды в соседних городах и на ближайших метеорологических станциях:

Погода в Salina Cruz (Мексика) (149 км)
Погода в Oaxaca (Мексика) (154 км)
Погода в Huajuapan De Leon (Мексика) (273 км)
Погода в Arriaga (Мексика) (283 км)
Погода в Coatzacoalcos (Мексика) (350 км)
Погода в Orizaba Ver. (Мексика) (359 км)
Погода в Cordoba-In-Veracruz (Мексика) (361 км)
Погода в Tuxtla Gutierrez (Мексика) (377 км)
Погода в Chilpancingo (Мексика) (383 км)
Погода в Hacienda Ylang (Мексика) (388 км)

Пояснения к столбцам:

Ветер - указаны скорость ветра в м/с - средняя за 10 мин, порывы в срок и между сроками (в фигурных скобках) и направление, откуда дует ветер: С - северный, СВ - северо-восточный, В - восточный, ЮВ - юго-восточный, Ю - южный, ЮЗ - юго-западный, З - западный, СЗ - северо-западный.
Видимость - горизонтальная дальность видимости в метрах или километрах. При видимости от 1 до 10 км при отсутствии осадков обычно наблюдается дымка, при ухудшении видимости до 1 км и менее - туман. В сухую погоду видимость может ухудшаться дымом, пылью или мглою.
Явления - указаны атмосферные явления, наблюдавшиеся в срок или в последний час перед сроком; фигурными скобками обозначены явления, наблюдавшиеся между сроками (за 1-3 часа до срока); квадратными скобками обозначены град или гололедные отложения с указанием их диаметра в мм.
Облачность - указаны через наклонную черту общая и нижняя облачность в баллах и высота нижней границы облаков в метрах; квадратными скобками обозначены формы облаков: Ci - перистые, Cs - перисто-слоистые, Cc - перисто-кучевые, Ac - высококучевые, As - высокослоистые, Sc - слоисто-кучевые, Ns - слоисто-дождевые, Cu - кучевые, Cb - кучево-дождевые. Подробнее классификацию облаков см. в Атласе облаков (PDF).
T - Температура воздуха - температура, измеренная на высоте 2 м над землей.
Td - Температура точки росы - температура, при понижении до которой содержащийся в воздухе водяной пар достигнет насыщения.
f - Относительная влажность воздуха - влажноcть воздуха, измеренная на высоте 2 м над землей.
Te - Эффективная температура - температура, которую ощущает одетый по сезону человек в тени. Характеристика душности погоды. При расчете учитывается влияние влажности воздуха и скорости ветра на теплоощущения человека.
Tes - Эффективная температура на солнце - температура, которую ощущает человек, с поправкой на солнечный нагрев. Характеристика знойности погоды. Зависит от высоты солнца над горизонтом, облачности и скорости ветра. Ночью, в пасмурную погоду, а также при ветре 12 м/с и более поправка равна нулю.
P - Атмосферное давление - приведенное к уровню моря атмосферное давление.
Po - Атмосферное давление - измеренное на уровне метеостанции атмосферное давление.
Tmin - Минимальная температура - минимум температуры воздуха на высоте 2 м над землей.
Tmax - Максимальная температура - максимум температуры воздуха на высоте 2 м над землей.
R - Количество осадков - Количество выпавших осадков за период времени, мм. При наведении курсора мыши на число - период времени, за который выпало указанное количество осадков.
R24 - Количество осадков - Количество выпавших осадков за 24 часа, мм.
S - Снежный покров - Высота снежного покрова, см. При наведении курсора мыши на число - состояние снежного покрова и степень покрытия местности в баллах.